Temperature
21 20 19 18 18 18 17 17 17 17 16 16 16 16 16 16 16 15 15 15 15 15 15 15 15 15 14 14 14 14 14 14 14 14 13 13 13 13 13 13 13 13 13
21 20 19 18 17 17 17 17 16 16 16 16 16 16 16 16 15 15 15 15 15 15 15 14 14 14 14 13 14 14 14 14 13 13 13 13 13 13 13 13 12 12 12
20 19 18 18 17 17 17 16 16 16 16 16 16 16 15 15 15 15 15 15 14 14 14 14 13 13 14 13 14 14 14 13 13 13 12 12 12 12 12 12 12 12 12
19 18 18 17 17 16 16 16 16 16 16 16 15 15 15 15 15 15 14 14 14 14 13 13 13 13 13 13 13 13 13 13 13 12 12 11 11 12 12 12 12 12 12
18 17 17 17 16 16 16 16 16 16 15 15 15 15 15 15 15 14 14 14 13 13 13 13 13 13 13 13 13 13 13 13 13 12 11 11 11 11 11 11 11 11 11
18 17 16 16 16 16 16 16 16 15 15 15 15 15 15 14 14 14 14 13 13 13 13 13 13 13 13 13 13 13 13 12 12 11 11 11 11 11 11 11 11 11 11
17 16 16 16 16 16 16 16 16 15 15 15 14 14 14 14 14 13 13 13 13 12 12 12 12 12 12 12 13 13 13 12 11 11 10 10 11 11 11 11 11 11 11
16 16 15 16 16 16 16 15 15 15 15 14 14 14 14 13 13 13 13 13 12 12 12 12 12 12 12 12 12 12 12 11 11 10 10 10 10 10 10 10 11 10 10
15 15 15 15 15 15 15 15 15 15 14 14 14 14 13 13 13 13 12 12 12 12 12 12 11 11 11 12 12 12 12 11 10 10 10 10 10 10 10 10 10 10 10
15 15 15 15 15 15 15 15 15 14 14 14 13 13 13 13 12 12 12 12 12 12 11 11 11 11 11 11 12 12 11 11 10 10 10 10 10 10 10 10 10 10 10
14 14 15 15 15 15 15 14 14 14 14 13 13 13 13 12 12 11 11 11 11 11 11 11 11 11 11 11 11 11 11 10 10 10 10 10 10 10 10 10 10 9 9
14 14 14 15 15 15 14 14 14 14 13 13 13 12 12 12 11 11 11 11 11 11 11 11 11 11 10 10 11 10 10 10 10 9 9 10 10 9 9 9 9 9 9
14 14 14 14 14 14 14 14 14 13 13 13 12 12 12 11 11 11 11 11 10 10 10 11 10 10 10 10 10 10 10 10 9 9 9 10 9 9 9 9 9 9 9
14 14 14 14 14 14 14 14 13 13 13 12 12 12 12 11 11 11 11 10 10 10 10 10 10 10 10 10 10 10 10 10 9 9 9 10 9 9 9 9 9 9 9
13 13 13 14 14 14 14 14 13 13 13 12 12 12 11 11 11 11 10 10 10 10 10 10 10 10 10 10 10 10 10 10 10 9 9 9 9 9 9 9 9 8 8
13 13 13 13 13 14 14 14 13 13 13 12 12 12 11 11 11 11 10 10 10 10 10 10 10 10 10 10 10 9 9 9 9 9 9 9 9 9 9 9 8 8 8
13 13 13 13 13 13 13 13 13 13 13 12 12 12 11 11 11 11 10 10 10 10 10 9 9 9 9 9 9 9 9 9 9 9 9 9 9 9 9 9 9 8 8
12 12 13 13 13 13 13 13 13 13 13 12 12 12 11 11 11 11 10 10 10 10 9 9 9 9 9 9 9 9 9 9 9 9 9 9 9 9 9 9 9 8 8
12 12 12 13 13 13 13 13 13 13 13 12 12 12 11 11 11 11 10 10 10 10 9 9 9 9 9 9 9 9 9 9 9 9 9 9 9 9 9 9 9 9 8
12 12 12 12 13 13 13 13 13 13 13 12 12 12 11 11 11 10 10 10 10 10 9 9 9 9 9 9 9 9 9 9 9 9 9 9 9 9 9 9 9 9 9
11 12 12 12 12 12 13 13 12 12 12 12 12 12 11 11 11 10 10 10 10 10 10 9 9 9 9 9 9 9 9 9 9 9 9 9 9 9 9 9 9 9 9
11 11 12 12 12 12 12 12 12 12 12 12 12 11 11 11 11 11 10 10 10 10 9 9 9 9 9 9 8 8 9 9 9 9 9 9 9 9 9 9 9 9 9
11 11 12 12 12 12 12 12 12 12 12 12 12 12 11 11 11 11 11 10 10 10 10 9 9 9 9 9 9 9 9 10 9 9 9 9 9 9 9 9 9 9 9
11 11 11 11 12 12 12 12 12 11 11 12 12 12 11 11 11 11 11 10 10 10 10 10 10 9 9 9 9 9 9 9 9 9 9 9 9 9 9 9 9 9 8
11 11 11 11 11 12 12 12 12 12 11 11 11 11 11 11 11 11 11 10 10 10 10 10 10 9 9 9 9 9 9 9 9 9 9 9 9 9 9 9 9 8 8
10 10 11 11 11 11 12 12 12 12 11 11 11 11 11 11 11 11 11 11 11 10 10 10 10 10 9 9 9 9 9 9 9 9 9 9 9 9 9 9 9 8 8
Wind_Speed
12 19 25 25 25 24 23 22 22 21 21 21 20 20 19 18 18 18 17 17 17 17 17 17 17 17 17 17 17 17 16 16 16 15 15 15 15 15 14 12 12 15 16
14 21 26 26 26 25 24 23 22 22 21 21 21 20 19 19 18 18 18 17 17 17 17 17 17 17 17 17 17 16 16 16 15 14 13 14 15 15 15 14 15 15 17
14 21 26 25 26 25 24 23 23 22 21 21 21 20 20 19 18 18 17 17 17 17 17 17 17 17 17 17 16 16 15 15 14 11 9 12 14 15 15 16 16 17 17
14 20 25 26 26 25 25 24 23 22 22 21 21 21 20 19 19 18 18 17 17 17 17 17 17 17 17 17 16 15 14 14 12 7 9 11 12 14 15 16 16 16 16
14 19 23 26 26 26 25 24 24 23 22 22 21 21 20 19 19 18 18 18 18 18 17 17 17 17 17 16 15 15 14 13 9 9 11 11 12 14 15 16 16 16 16
14 19 22 26 26 26 25 25 24 23 23 22 21 21 20 20 19 19 18 18 18 18 17 17 16 16 16 16 15 14 13 9 8 11 10 11 12 14 15 15 15 15 16
13 17 22 25 26 25 25 25 24 24 23 22 21 21 20 20 19 19 19 18 18 18 17 17 16 16 15 15 14 13 11 7 10 10 10 11 12 13 14 14 15 15 15
12 15 20 25 25 25 25 25 25 24 24 23 22 21 21 20 20 19 19 19 18 18 17 17 16 15 15 15 14 13 10 6 10 10 10 11 12 13 14 13 14 14 14
12 14 17 22 24 24 25 25 25 24 23 23 22 21 21 21 20 20 19 18 18 17 17 16 16 15 15 14 13 12 9 5 9 9 9 10 11 12 12 12 12 13 13
11 14 16 19 22 23 24 25 24 24 23 23 22 21 21 20 20 19 19 18 17 17 17 16 16 15 15 14 13 11 8 5 9 8 8 9 10 11 12 12 12 12 13
11 13 15 17 19 20 21 23 24 23 23 22 21 22 21 19 18 18 17 17 17 17 16 16 15 15 15 13 12 9 6 6 8 7 8 9 9 10 11 12 11 11 11
14 15 15 16 17 18 17 19 20 20 21 20 20 21 18 16 15 16 18 17 17 16 16 15 15 15 11 11 10 7 6 7 7 7 8 7 8 10 11 11 10 10 10
15 15 16 16 16 16 13 14 13 14 16 18 20 20 17 15 14 14 14 15 15 15 14 15 14 11 9 8 8 7 6 6 6 6 7 7 7 9 9 9 8 8 8
14 16 16 16 15 15 14 13 13 12 12 13 17 20 16 11 11 12 11 13 13 11 11 11 9 10 9 9 8 8 7 5 5 5 7 7 7 8 8 7 7 7 7
15 16 16 16 16 14 14 12 13 13 14 15 15 18 17 12 12 12 10 11 12 11 11 10 9 10 9 8 7 7 7 6 6 5 6 7 7 6 6 6 5 5 5
17 17 16 17 17 15 14 13 13 13 13 15 15 18 19 15 13 12 11 11 11 11 11 10 10 9 8 7 7 7 6 6 5 5 5 6 6 5 5 4 4 3 3
17 16 17 17 17 17 16 15 13 13 14 13 14 18 19 17 16 13 11 11 11 12 12 10 10 8 7 7 7 6 6 5 5 5 5 5 5 5 4 3 2 2 1
17 16 16 14 16 17 16 15 12 13 14 13 15 17 19 19 18 14 11 11 12 12 11 9 9 8 7 7 6 5 5 4 5 5 5 5 4 4 4 3 2 1 0
17 16 15 15 16 17 16 14 14 14 14 13 14 15 17 19 19 15 11 11 13 11 10 9 9 8 8 7 6 5 4 4 4 5 5 5 4 4 3 3 2 1 2
16 16 16 15 15 15 14 13 12 13 13 13 13 15 18 18 19 16 12 13 13 11 10 10 10 8 7 7 5 4 4 4 4 5 5 5 5 5 5 4 4 2 1
14 16 16 15 16 13 12 13 13 13 13 13 13 17 19 19 19 16 12 13 13 12 12 13 11 10 8 7 6 4 4 5 5 5 5 5 6 6 5 5 5 4 3
14 15 17 16 16 16 14 13 13 13 12 13 12 16 19 19 19 16 16 14 14 12 14 13 12 9 7 8 6 5 4 5 5 6 5 5 6 6 6 6 6 5 5
13 14 15 17 17 17 16 12 11 11 10 11 14 14 17 20 20 18 18 16 15 14 13 14 14 13 10 9 7 5 4 4 3 5 6 6 6 5 5 6 6 6 6
13 13 14 15 17 17 17 15 17 14 13 13 14 14 17 19 20 20 19 18 16 14 14 15 14 12 12 10 8 6 4 1 2 3 5 5 6 6 5 5 6 6 6
11 11 12 13 16 17 18 18 18 17 15 13 14 16 17 17 19 20 19 18 17 15 16 16 15 14 12 11 9 7 6 4 4 3 3 4 5 5 5 5 5 5 6
8 9 11 12 15 15 17 19 20 20 18 17 17 16 16 14 16 20 19 18 17 15 16 16 15 16 13 13 10 9 7 5 6 5 5 4 4 3 4 4 5 5 5
Wind_Direction
173 170 169 168 165 163 160 157 154 151 150 148 146 142 139 135 132 128 125 122 121 119 116 113 112 109 105 101 98 95 91 88 85 83 83 82 84 83 80 76 76 75 70
168 170 168 169 166 164 162 159 155 153 152 150 147 144 141 137 135 132 129 126 124 122 119 116 114 111 108 104 100 96 92 89 85 83 85 86 82 82 80 74 69 74 71
169 170 169 170 166 165 163 159 156 154 153 151 147 144 142 140 138 136 134 131 127 124 120 117 115 113 110 106 102 98 95 91 87 85 91 90 84 79 79 78 76 73 71
172 172 172 169 167 166 164 160 157 156 154 152 148 146 144 143 141 138 136 134 131 126 123 120 117 114 111 108 104 100 96 92 88 91 89 85 83 80 79 79 75 72 71
177 176 171 168 169 167 164 161 159 158 156 153 151 149 148 146 143 140 136 134 131 128 125 123 119 116 113 109 106 103 99 95 94 93 87 83 81 82 80 78 75 74 73
181 178 171 169 171 169 166 162 161 160 157 155 153 152 150 148 145 141 136 135 132 130 128 125 121 119 116 113 109 106 102 103 110 92 89 85 84 82 80 79 77 76 75
183 180 174 172 173 170 168 164 162 161 159 158 157 155 152 149 146 141 139 137 136 134 132 128 125 124 121 116 112 108 104 95 99 97 91 85 83 83 83 81 78 77 75
184 182 177 175 174 172 170 166 163 162 161 161 160 156 153 150 146 143 142 141 139 138 136 133 130 128 124 119 115 111 107 109 106 100 93 89 83 84 83 82 78 77 74
187 185 182 179 178 174 170 167 164 163 162 162 159 156 153 150 147 145 144 144 143 141 139 137 134 130 125 122 118 112 105 95 109 100 95 91 87 87 86 84 82 80 77
193 191 188 184 181 179 174 168 164 163 162 161 158 153 151 150 149 147 147 146 145 144 142 139 137 133 127 123 120 116 119 133 109 107 98 94 92 92 91 88 86 84 80
201 198 192 190 186 182 177 170 166 163 160 158 156 149 151 156 154 152 150 148 148 147 144 142 139 131 127 123 121 126 146 125 115 104 95 94 99 96 95 91 87 85 81
206 203 198 193 190 183 176 172 172 169 166 167 165 162 163 159 156 153 146 149 148 146 144 141 137 136 142 137 135 155 136 128 122 110 97 92 104 103 99 94 91 87 83
211 205 203 198 192 186 178 174 173 172 171 172 169 168 163 157 154 155 155 153 152 152 149 143 148 152 152 143 149 146 133 132 126 119 102 93 111 109 103 99 95 90 85
218 209 206 200 195 191 183 178 175 172 172 171 171 169 163 160 162 164 164 163 162 160 155 158 159 155 153 153 153 145 142 141 134 123 98 86 107 111 108 105 101 95 87
224 214 209 202 199 194 187 180 179 175 174 171 170 172 168 166 168 168 166 166 166 162 162 162 163 158 157 155 155 154 149 145 140 135 119 92 97 106 111 109 108 101 92
227 221 213 207 201 195 190 183 181 177 173 172 173 174 172 171 171 172 169 169 167 167 166 168 165 161 159 160 160 160 157 154 153 150 144 129 109 105 107 110 112 105 99
227 224 217 210 202 197 193 186 181 176 174 175 175 176 176 174 175 174 173 173 171 170 169 170 165 166 162 163 167 165 165 168 168 163 162 163 152 123 116 118 121 127 111
227 221 219 211 205 199 193 187 181 178 176 177 176 177 179 178 178 176 175 176 173 171 172 171 171 172 170 173 171 170 174 174 185 180 179 183 181 174 149 126 149 168 219
223 218 217 209 205 199 192 188 182 179 178 178 177 178 181 181 180 180 178 175 173 174 177 175 178 178 175 175 173 175 183 189 190 195 197 194 195 199 196 152 153 206 253
222 215 212 209 203 197 189 186 181 180 181 180 180 181 181 182 183 182 179 179 177 178 180 181 179 179 177 172 169 179 192 199 205 207 205 203 206 209 214 209 207 194 215
222 215 208 209 201 193 189 185 184 184 183 182 184 183 184 183 184 184 181 182 183 185 185 185 180 178 178 173 174 183 197 208 215 209 210 212 210 213 220 222 229 232 228
220 216 209 209 203 196 194 190 189 186 186 184 183 186 187 187 187 187 185 184 186 188 189 187 183 183 179 185 189 185 195 200 208 213 213 219 221 212 219 227 231 235 245
217 215 212 210 205 198 193 190 183 180 180 185 187 188 190 190 190 190 190 188 189 190 191 190 189 189 185 189 199 201 202 205 186 197 211 217 219 221 222 223 231 237 244
218 215 214 213 209 200 192 193 187 187 190 194 190 190 190 192 192 193 193 193 191 193 194 193 194 195 191 191 195 216 231 223 208 193 198 210 218 228 229 220 228 233 240
222 215 212 213 212 202 195 194 194 196 197 194 190 190 189 192 194 195 194 195 195 196 197 195 194 197 198 199 196 194 203 211 231 233 226 211 212 219 225 228 227 231 237
230 220 211 211 213 205 201 196 198 197 196 192 190 190 191 191 194 196 196 196 197 198 198 197 196 198 201 203 202 201 201 202 207 214 233 235 238 217 219 224 226 227 233
Height
1481 1483 1485 1488 1492 1495 1498 1501 1504 1506 1508 1510 1512 1514 1516 1517 1518 1520 1521 1522 1523 1524 1525 1525 1526 1526 1526 1527 1527 1527 1527 1527 1527 1527 1527 1527 1527 1527 1527 1527 1528 1527 1526
1480 1482 1484 1487 1491 1494 1497 1500 1503 1506 1508 1510 1512 1514 1516 1517 1519 1520 1521 1522 1524 1525 1525 1526 1526 1527 1527 1527 1527 1528 1528 1528 1528 1529 1529 1529 1529 1529 1529 1528 1528 1528 1528
1479 1481 1483 1486 1490 1493 1497 1500 1502 1505 1508 1510 1512 1514 1516 1517 1519 1520 1521 1523 1524 1525 1525 1526 1527 1527 1528 1528 1528 1528 1529 1529 1529 1530 1531 1532 1531 1531 1530 1530 1530 1529 1529
1479 1481 1482 1485 1489 1492 1496 1499 1502 1505 1507 1510 1512 1514 1516 1517 1519 1520 1521 1523 1524 1525 1526 1526 1527 1528 1528 1529 1529 1529 1530 1530 1531 1532 1533 1534 1533 1532 1532 1532 1531 1531 1530
1478 1480 1482 1485 1488 1492 1495 1498 1501 1504 1507 1509 1511 1513 1515 1517 1519 1520 1521 1523 1524 1525 1526 1527 1528 1529 1529 1529 1530 1530 1531 1531 1532 1534 1534 1535 1534 1534 1533 1533 1533 1532 1532
1478 1480 1481 1484 1488 1491 1494 1497 1500 1503 1506 1508 1511 1513 1515 1517 1518 1520 1521 1523 1524 1525 1526 1527 1528 1529 1530 1530 1531 1531 1532 1533 1534 1535 1535 1536 1536 1535 1535 1534 1534 1534 1533
1477 1479 1481 1484 1487 1491 1494 1496 1499 1502 1505 1507 1510 1513 1515 1516 1518 1520 1521 1522 1524 1525 1527 1528 1529 1530 1530 1531 1532 1532 1533 1534 1536 1536 1537 1537 1537 1537 1536 1536 1536 1535 1535
1475 1478 1480 1483 1486 1490 1493 1496 1498 1501 1504 1507 1509 1512 1514 1516 1518 1519 1521 1522 1524 1526 1527 1528 1530 1530 1531 1532 1532 1533 1534 1535 1537 1538 1538 1538 1538 1538 1538 1537 1537 1537 1536
1474 1476 1479 1482 1485 1488 1491 1494 1497 1500 1503 1506 1508 1511 1514 1516 1518 1519 1521 1522 1524 1526 1527 1529 1530 1531 1532 1533 1533 1534 1535 1536 1539 1539 1539 1539 1539 1539 1539 1538 1538 1538 1537
1472 1475 1478 1480 1483 1486 1490 1493 1496 1499 1502 1505 1508 1510 1513 1515 1517 1519 1521 1522 1524 1526 1528 1529 1531 1532 1533 1533 1534 1535 1536 1538 1540 1540 1540 1540 1540 1540 1540 1539 1539 1539 1538
1470 1472 1475 1478 1481 1484 1487 1490 1494 1497 1501 1504 1507 1509 1512 1515 1517 1519 1521 1522 1524 1526 1528 1530 1531 1532 1533 1534 1535 1536 1538 1540 1540 1541 1541 1540 1541 1541 1541 1540 1540 1539 1539
1467 1469 1472 1474 1477 1481 1484 1487 1491 1494 1498 1501 1504 1507 1511 1513 1516 1518 1520 1522 1524 1526 1528 1530 1531 1532 1534 1535 1536 1537 1539 1540 1541 1541 1541 1541 1542 1542 1541 1541 1541 1540 1539
1464 1466 1468 1471 1474 1477 1480 1484 1487 1491 1495 1499 1502 1505 1508 1511 1514 1517 1519 1522 1524 1526 1528 1529 1531 1533 1534 1535 1536 1538 1539 1541 1542 1542 1542 1542 1542 1542 1542 1542 1541 1541 1540
1460 1462 1465 1467 1470 1473 1476 1480 1483 1487 1491 1495 1499 1502 1505 1509 1512 1515 1517 1520 1522 1525 1527 1529 1531 1532 1534 1535 1537 1538 1539 1540 1541 1542 1541 1542 1542 1542 1542 1542 1541 1541 1540
1456 1458 1460 1463 1466 1469 1472 1476 1479 1483 1487 1491 1495 1499 1502 1506 1509 1513 1516 1518 1521 1523 1525 1528 1530 1532 1533 1535 1537 1538 1539 1540 1541 1541 1541 1542 1542 1542 1542 1542 1541 1541 1540
1450 1453 1456 1459 1462 1465 1468 1471 1475 1480 1484 1488 1492 1496 1500 1503 1507 1510 1513 1516 1519 1521 1524 1526 1529 1531 1533 1534 1536 1537 1539 1540 1541 1541 1541 1541 1542 1542 1542 1542 1541 1541 1540
1445 1448 1450 1453 1457 1460 1463 1467 1471 1476 1480 1484 1488 1492 1496 1500 1504 1508 1511 1514 1517 1519 1522 1525 1527 1530 1531 1533 1535 1536 1538 1539 1540 1540 1541 1541 1541 1541 1541 1541 1541 1540 1539
1440 1442 1444 1448 1451 1454 1458 1463 1467 1472 1476 1480 1484 1488 1493 1497 1501 1505 1508 1512 1514 1517 1520 1523 1525 1528 1530 1532 1534 1535 1536 1537 1539 1539 1540 1540 1540 1540 1540 1540 1540 1539 1539
1434 1436 1438 1441 1445 1449 1453 1458 1463 1467 1472 1476 1481 1485 1489 1493 1498 1502 1505 1509 1512 1515 1518 1520 1523 1526 1528 1531 1532 1534 1535 1536 1537 1538 1538 1539 1539 1539 1539 1538 1538 1538 1537
1427 1430 1432 1435 1439 1443 1448 1453 1457 1462 1467 1472 1476 1480 1485 1489 1494 1498 1502 1506 1509 1512 1515 1518 1521 1524 1526 1529 1531 1532 1534 1535 1535 1536 1537 1537 1537 1537 1537 1537 1537 1536 1535
1421 1424 1426 1429 1433 1436 1441 1445 1450 1456 1461 1466 1471 1476 1481 1485 1490 1494 1498 1502 1505 1509 1512 1515 1518 1521 1524 1526 1529 1531 1532 1533 1534 1534 1534 1535 1535 1535 1535 1535 1535 1534 1533
1414 1417 1420 1423 1427 1431 1435 1440 1446 1451 1457 1462 1467 1472 1477 1481 1485 1490 1494 1498 1501 1505 1509 1512 1515 1518 1521 1524 1527 1529 1531 1533 1531 1531 1532 1532 1533 1533 1532 1532 1532 1531 1530
1408 1411 1414 1418 1421 1425 1430 1435 1441 1447 1452 1456 1461 1466 1471 1476 1481 1485 1490 1494 1498 1501 1504 1508 1511 1514 1517 1521 1523 1526 1528 1529 1530 1530 1529 1529 1530 1530 1530 1529 1529 1528 1527
1403 1405 1408 1412 1415 1420 1424 1429 1433 1438 1443 1447 1454 1460 1465 1471 1476 1480 1485 1489 1493 1497 1501 1504 1508 1511 1514 1517 1520 1522 1524 1525 1527 1528 1528 1527 1527 1527 1527 1527 1526 1525 1524
1398 1399 1402 1405 1410 1414 1418 1423 1428 1433 1438 1444 1449 1454 1460 1465 1470 1475 1480 1484 1488 1492 1496 1500 1504 1507 1510 1513 1515 1518 1520 1522 1523 1525 1525 1525 1525 1524 1524 1524 1523 1522 1521
1393 1395 1398 1401 1404 1408 1412 1417 1422 1427 1432 1438 1442 1447 1453 1458 1464 1469 1474 1479 1483 1487 1492 1495 1499 1503 1506 1510 1512 1514 1516 1518 1520 1521 1522 1522 1522 1522 1521 1520 1519 1518 1517